1501534800.46,18551,22.0,75032.8,6.51,-15.81,-16.31,0,*7F
1501534801.68,18552,22.0,75032.8,6.49,-15.89,-16.37,0,*7B
1501534802.94,18553,22.0,75034.0,6.51,-15.89,-16.37,0,*73
1501534804.21,18554,22.0,75032.0,6.51,-15.89,-16.31,0,*72
1501534805.46,18555,22.0,75034.0,6.51,-15.89,-16.45,0,*70
1501534806.71,18556,22.0,75034.5,6.51,-15.89,-16.45,0,*73
1501534807.99,18557,22.0,75034.8,6.51,-15.89,-16.31,0,*71
1501534809.24,18558,22.0,75032.5,6.51,-15.75,-16.23,0,*7E
1501534810.51,18559,21.94,75032.5,6.53,-15.89,-16.31,0,*7D
1501534811.79,18560,22.0,75034.0,6.53,-15.81,-16.31,0,*7F
1501534813.03,18561,22.0,75034.5,6.53,-15.89,-16.37,0,*70
1501534814.28,18562,22.0,75034.8,6.53,-15.89,-16.37,0,*73
1501534815.53,18563,22.0,75034.3,6.53,-15.81,-16.37,0,*7A
1501534816.8,18564,22.0,75034.5,6.53,-15.89,-16.31,0,*73
1501534818.07,18565,22.0,75034.0,6.53,-15.89,-16.31,0,*72
1501534819.29,18566,22.0,75032.0,6.53,-16.03,-16.45,0,*73
1501534820.51,18567,21.94,75032.5,6.53,-15.95,-16.37,0,*7B
1501534821.76,18568,22.0,75034.3,6.53,-15.89,-16.37,0,*79
1501534823.03,18569,22.0,75032.5,6.53,-15.81,-16.31,0,*76
1501534824.3,18570,21.94,75032.3,6.53,-15.81,-16.23,0,*7D
1501534825.58,18571,22.0,75034.3,6.57,-15.85,-16.27,0,*78
1501534826.83,18572,22.0,75032.5,6.53,-15.89,-16.45,0,*77
1501534828.07,18573,22.0,75034.0,6.53,-15.81,-16.37,0,*7B
1501534829.32,18574,21.94,75032.0,6.53,-15.75,-16.23,0,*72
1501534830.6,18575,22.0,75032.8,6.53,-15.81,-16.23,0,*78
1501534831.85,18576,22.0,75032.5,6.57,-15.75,-16.27,0,*70
1501534833.1,18577,22.0,75032.5,6.53,-15.75,-16.23,0,*71
1501534834.35,18578,22.0,75032.8,6.53,-15.75,-16.31,0,*7D
1501534835.61,18579,22.0,75036.8,6.57,-15.75,-16.27,0,*7F
1501534836.86,18580,22.0,75032.8,6.57,-15.75,-16.27,0,*79
1501534838.14,18581,22.0,75034.8,6.57,-15.85,-16.31,0,*70
1501534839.39,18582,22.0,75032.0,6.57,-15.71,-16.27,0,*7F
1501534840.64,18583,22.0,75036.0,6.53,-15.71,-16.17,0,*79
1501534841.9,18584,22.0,75032.0,6.57,-15.67,-16.13,0,*79
1501534843.15,18585,21.94,75032.8,6.57,-15.67,-16.27,0,*7F
1501534844.42,18586,22.0,75034.3,6.57,-15.85,-16.27,0,*70
1501534845.7,18587,22.0,75034.0,6.53,-15.89,-16.31,0,*7E
1501534846.98,18588,22.0,75034.3,6.57,-15.85,-16.17,0,*7D
1501534848.24,18589,21.94,75030.5,6.57,-15.75,-16.17,0,*73
1501534849.5,18590,22.0,75038.0,6.57,-15.75,-16.27,0,*78
1501534850.77,18591,22.0,75034.8,6.57,-15.85,-16.31,0,*71
1501534852.03,18592,22.0,75034.0,6.57,-15.89,-16.41,0,*79
1501534853.28,18593,22.0,75034.8,6.57,-15.75,-16.31,0,*7C
1501534854.53,18594,22.0,75034.3,6.59,-15.81,-16.27,0,*79
1501534855.76,18595,22.0,75032.3,6.59,-15.71,-16.27,0,*77
1501534856.99,18596,22.0,75034.3,6.59,-15.67,-16.13,0,*74
1501534858.25,18597,21.94,75032.0,6.57,-15.75,-16.31,0,*78
1501534859.47,18598,22.0,75034.3,6.59,-15.71,-16.23,0,*7E
1501534860.75,18599,22.0,75034.3,6.61,-15.81,-16.23,0,*7B
1501534862.0,18600,22.0,75034.0,6.59,-15.81,-16.27,0,*77
1501534863.25,18601,22.0,75034.5,6.59,-15.81,-16.27,0,*76
1501534864.5,18602,22.0,75034.8,6.59,-15.81,-16.27,0,*75
1501534865.76,18603,22.0,75032.0,6.59,-15.85,-16.27,0,*70
1501534867.03,18604,22.0,75032.5,6.61,-15.85,-16.27,0,*7C
1501534868.26,18605,22.0,75034.0,6.59,-15.67,-16.13,0,*7D
1501534869.49,18606,22.0,75032.3,6.59,-15.67,-16.23,0,*7D
1501534870.74,18607,22.0,75034.8,6.61,-15.71,-16.23,0,*70
1501534871.99,18608,22.0,75032.0,6.61,-15.95,-16.27,0,*71
1501534873.24,18609,22.0,75032.5,6.61,-15.85,-16.37,0,*70
1501534874.49,18610,22.0,75034.3,6.59,-15.81,-16.23,0,*72
1501534875.74,18611,21.94,75030.8,6.59,-15.81,-16.23,0,*73
1501534877.02,18612,22.0,75034.3,6.61,-15.81,-16.23,0,*7B
1501534878.27,18613,22.0,75032.3,6.61,-15.71,-16.13,0,*76
1501534879.5,18614,22.0,75034.3,6.61,-15.53,-15.99,0,*70
1501534880.75,18615,22.0,75034.3,6.61,-15.67,-16.09,0,*7C
1501534882.02,18616,22.0,75034.3,6.61,-15.81,-16.27,0,*7B
1501534883.3,18617,22.0,75032.5,6.61,-15.81,-16.23,0,*7E
1501534884.53,18618,22.0,75032.8,6.63,-15.67,-16.17,0,*7C
1501534885.77,18619,22.0,75032.5,6.63,-15.81,-16.31,0,*71
1501534887.03,18620,22.0,75034.3,6.65,-15.67,-16.17,0,*71
1501534888.25,18621,22.0,75032.5,6.63,-15.67,-16.09,0,*79
1501534889.46,18622,22.0,75036.0,6.63,-15.63,-16.03,0,*74
1501534890.66,18623,22.0,75032.0,6.63,-15.63,-16.03,0,*75
1501534891.86,18624,21.94,75030.5,6.63,-15.49,-15.95,0,*76
1501534893.06,18625,22.0,75032.0,6.67,-15.29,-15.67,0,*78
1501534894.26,18626,22.0,75032.5,6.63,-15.15,-15.63,0,*74
1501534895.51,18627,22.0,75032.8,6.65,-15.35,-15.75,0,*76
1501534896.74,18628,22.0,75034.3,6.65,-15.49,-15.95,0,*7C
1501534897.97,18629,22.0,75034.3,6.65,-15.63,-15.95,0,*75
1501534899.2,18630,22.0,75034.0,6.63,-15.63,-16.09,0,*7D
1501534900.42,18631,22.0,75034.5,6.65,-15.63,-16.03,0,*70
1501534901.65,18632,21.94,75032.0,6.67,-15.63,-16.13,0,*70
1501534902.9,18633,22.0,75034.3,6.67,-15.57,-15.89,0,*76
1501534904.13,18634,21.94,75032.0,6.67,-15.57,-15.99,0,*70
1501534905.33,18635,22.0,75034.8,6.67,-15.63,-16.03,0,*76
1501534906.59,18636,22.0,75036.0,6.67,-15.39,-15.85,0,*77
1501534907.83,18637,22.0,75034.0,6.69,-15.21,-15.71,0,*7A
1501534909.07,18638,22.0,75036.3,6.69,-15.21,-15.67,0,*72
1501534910.34,18639,22.0,75034.8,6.69,-15.21,-15.57,0,*70
1501534911.61,18640,21.94,75032.3,6.69,-15.21,-15.57,0,*7E
1501534912.87,18641,22.0,75032.5,6.69,-15.21,-15.57,0,*7F
1501534914.11,18642,22.0,75032.0,6.69,-15.21,-15.67,0,*7F
1501534915.37,18643,22.0,75032.0,6.71,-15.39,-15.81,0,*76
1501534916.57,18644,22.0,75032.0,6.71,-15.53,-15.95,0,*78
1501534917.83,18645,22.0,75034.0,6.73,-15.53,-16.09,0,*7D
1501534919.05,18646,22.0,75032.3,6.71,-15.67,-16.13,0,*70
1501534920.28,18647,22.0,75032.3,6.71,-15.67,-16.23,0,*72
1501534921.5,18648,22.0,75034.8,6.71,-15.67,-16.09,0,*75
1501534922.73,18649,22.0,75036.0,6.71,-15.67,-16.23,0,*7C
1501534923.93,18650,22.0,75034.3,6.71,-15.49,-15.95,0,*76
1501534925.16,18651,21.94,75032.3,6.73,-15.29,-15.75,0,*7D
1501534926.44,18652,22.0,75032.8,6.73,-15.43,-15.81,0,*79
1501534927.66,18653,22.0,75032.5,6.73,-15.49,-15.95,0,*77
1501534928.91,18654,21.94,75032.5,6.73,-15.49,-15.89,0,*7D
1501534930.14,18655,22.0,75036.3,6.73,-15.53,-15.95,0,*7A
1501534931.37,18656,22.0,75034.3,6.71,-15.67,-16.13,0,*71
1501534932.64,18657,22.0,75034.3,6.73,-15.43,-15.89,0,*74
1501534933.87,18658,22.0,75034.8,6.73,-15.53,-16.03,0,*7B
1501534935.12,18659,21.94,75032.5,6.73,-15.63,-16.09,0,*73
1501534936.37,18660,22.0,75034.3,6.73,-15.63,-16.17,0,*76
1501534937.62,18661,22.0,75032.0,6.73,-15.67,-16.17,0,*73
1501534938.88,18662,22.0,75034.8,6.73,-15.67,-16.09,0,*7F
1501534940.13,18663,22.0,75032.5,6.73,-15.53,-16.09,0,*79
1501534941.36,18664,22.0,75034.8,6.75,-15.63,-16.09,0,*7B
1501534942.59,18665,22.0,75032.3,6.75,-15.43,-15.75,0,*70
1501534943.85,18666,21.94,75034.8,6.75,-15.43,-15.81,0,*78
1501534945.07,18667,22.0,75032.3,6.75,-15.49,-15.89,0,*7B
1501534946.3,18668,21.94,75030.3,6.75,-15.63,-16.09,0,*77
1501534947.5,18669,22.0,75032.0,6.79,-15.29,-15.71,0,*78
1501534948.7,18670,21.94,75034.3,6.79,-15.11,-15.49,0,*70
1501534949.9,18671,21.94,75034.8,6.79,-15.11,-15.49,0,*71
1501534951.09,18672,21.94,75034.3,6.79,-15.15,-15.71,0,*7D
1501534952.32,18673,22.0,75036.0,6.79,-15.25,-15.57,0,*7B
1501534953.56,18674,22.0,75034.3,6.81,-15.07,-15.43,0,*7E
1501534954.81,18675,22.0,75036.0,6.83,-14.97,-15.43,0,*75
1501534956.08,18676,21.94,75034.5,6.81,-15.35,-15.85,0,*77
1501534957.31,18677,22.0,75032.8,6.83,-15.57,-15.99,0,*7D
1501534958.53,18678,22.0,75032.3,6.81,-15.53,-15.99,0,*74
1501534959.75,18679,22.0,75032.5,6.83,-15.43,-15.95,0,*7A
1501534960.98,18680,21.94,75032.5,6.83,-15.43,-15.95,0,*7C
1501534962.24,18681,22.0,75034.8,6.83,-15.43,-15.85,0,*7C
1501534963.44,18682,22.0,75036.0,6.83,-15.53,-15.99,0,*73
1501534964.64,18683,22.0,75036.8,6.83,-15.53,-15.99,0,*72
1501534965.84,18684,21.94,75034.5,6.83,-15.67,-15.99,0,*72
1501534967.03,18685,22.0,75034.8,6.83,-15.67,-15.99,0,*73
1501534968.26,18686,22.0,75034.0,6.81,-15.53,-15.95,0,*79
1501534969.51,18687,22.0,75034.3,6.83,-15.43,-15.85,0,*7A
1501534970.71,18688,22.0,75034.3,6.85,-15.53,-16.03,0,*7F
1501534971.91,18689,22.0,75034.5,6.85,-15.63,-16.03,0,*7D
1501534973.14,18690,22.0,75034.3,6.83,-15.67,-16.09,0,*7D
1501534974.37,18691,22.0,75034.5,6.85,-15.67,-16.09,0,*7A
1501534975.57,18692,22.0,75034.3,6.85,-15.53,-16.03,0,*74
1501534976.79,18693,21.94,75032.5,6.85,-15.53,-15.89,0,*74
1501534978.02,18694,21.94,75034.3,6.85,-15.39,-15.95,0,*72
1501534979.27,18695,22.0,75034.8,6.85,-15.39,-15.89,0,*7E
1501534980.5,18696,21.94,75034.5,6.85,-15.63,-16.09,0,*79
1501534981.72,18697,22.0,75034.8,6.85,-15.53,-15.89,0,*70
1501534982.92,18698,22.0,75038.3,6.85,-15.53,-16.03,0,*7E
1501534984.17,18699,21.94,75032.3,6.85,-15.39,-15.89,0,*72
1501534985.42,18700,22.0,75036.0,6.87,-15.49,-15.89,0,*76
1501534986.7,18701,22.0,75034.8,6.87,-15.35,-15.81,0,*74
1501534987.98,18702,22.0,75032.0,6.87,-15.35,-15.81,0,*77
1501534989.23,18703,21.94,75032.5,6.87,-15.49,-15.89,0,*75
1501534990.48,18704,21.94,75034.5,6.89,-15.43,-15.89,0,*76
1501534991.74,18705,21.94,75032.5,6.87,-15.35,-15.75,0,*7B
1501534992.97,18706,22.0,75034.3,6.87,-15.53,-15.95,0,*76
1501534994.19,18707,22.0,75034.8,6.85,-15.49,-15.89,0,*73
1501534995.44,18708,22.0,75038.5,6.87,-15.53,-15.89,0,*75
1501534996.67,18709,22.0,75032.8,6.89,-15.29,-15.85,0,*7B
1501534997.91,18710,22.0,75034.5,6.89,-15.43,-15.75,0,*70
1501534999.16,18711,21.94,75034.5,6.89,-15.35,-15.85,0,*7F
1501535000.39,18712,22.0,75032.8,6.89,-15.49,-15.89,0,*7B
1501535001.67,18713,22.0,75032.8,6.91,-15.39,-15.81,0,*7C
1501535002.92,18714,22.0,75036.5,6.89,-15.43,-15.89,0,*77
1501535004.16,18715,21.94,75032.8,6.91,-15.53,-15.95,0,*73
1501535005.35,18716,22.0,75032.0,6.89,-15.49,-15.99,0,*7E
1501535006.64,18717,21.94,75034.5,6.91,-15.43,-15.81,0,*75
1501535007.9,18718,21.94,75034.8,6.91,-15.43,-15.95,0,*7F
1501535009.15,18719,22.0,75034.8,6.91,-15.39,-15.67,0,*7E
1501535010.38,18720,22.0,75036.8,6.91,-15.29,-15.71,0,*72
1501535011.63,18721,22.0,75032.0,6.91,-15.43,-15.99,0,*79
1501535012.89,18722,22.0,75034.5,6.91,-15.53,-15.85,0,*76
1501535014.17,18723,22.0,75034.8,6.91,-15.43,-15.85,0,*76
1501535015.45,18724,22.0,75034.5,6.91,-15.43,-15.85,0,*71
1501535016.69,18725,21.94,75032.5,6.91,-15.25,-15.71,0,*7B
1501535017.95,18726,21.94,75034.8,6.91,-15.29,-15.81,0,*7B
1501535019.17,18727,22.0,75036.8,6.93,-15.53,-15.85,0,*71
1501535020.38,18728,22.0,75038.0,6.93,-15.53,-15.95,0,*7F
1501535021.6,18729,21.94,75032.5,6.93,-15.57,-15.99,0,*76
1501535022.85,18730,21.94,75032.5,6.95,-15.39,-15.75,0,*72
1501535024.07,18731,21.94,75034.5,6.95,-15.25,-15.67,0,*7D
1501535025.3,18732,22.0,75034.8,6.93,-15.29,-15.81,0,*7C
1501535026.54,18733,22.0,75032.5,6.95,-15.35,-15.67,0,*7E
1501535027.79,18734,22.0,75038.3,6.97,-15.35,-15.81,0,*73
1501535029.07,18735,22.0,75036.3,6.95,-15.35,-15.81,0,*70
1501535030.29,18736,21.94,75032.0,6.97,-15.35,-15.75,0,*7A
1501535031.57,18737,22.0,75034.5,6.95,-15.39,-15.81,0,*7E
1501535032.76,18738,21.94,75032.5,6.97,-15.25,-15.67,0,*76
1501535033.96,18739,21.94,75032.0,6.97,-15.25,-15.75,0,*74
1501535035.16,18740,21.94,75032.0,6.97,-15.25,-15.75,0,*7A
1501535036.36,18741,21.94,75032.0,6.97,-15.25,-15.63,0,*7C
1501535037.59,18742,21.94,75032.0,6.99,-15.29,-15.63,0,*7D
1501535038.78,18743,22.0,75036.0,6.97,-15.49,-15.75,0,*73
1501535040.01,18744,22.0,75036.0,6.99,-15.29,-15.75,0,*7C
1501535041.24,18745,22.0,75036.0,6.99,-15.49,-15.99,0,*79
1501535042.46,18746,22.0,75034.5,6.99,-15.49,-15.99,0,*7A
1501535043.71,18747,22.0,75036.3,6.99,-15.43,-15.99,0,*71
1501535044.91,18748,21.94,75032.3,6.97,-15.53,-16.03,0,*71
1501535046.16,18749,22.0,75038.0,6.99,-15.35,-15.75,0,*7C
1501535047.41,18750,22.0,75032.8,6.99,-15.35,-15.75,0,*74
1501535048.69,18751,22.0,75034.8,6.99,-15.43,-15.85,0,*7B
1501535049.94,18752,21.94,75032.5,6.99,-15.35,-15.75,0,*76
1501535051.19,18753,21.94,75034.8,6.99,-15.43,-15.99,0,*74
1501535052.47,18754,22.0,75034.3,6.99,-15.43,-15.85,0,*7E
1501535053.73,18755,21.94,75034.0,6.99,-15.43,-15.75,0,*70
1501535054.98,18756,22.0,75032.8,7.03,-15.29,-15.81,0,*76
1501535056.21,18757,21.94,75032.8,7.03,-15.29,-15.67,0,*7F
1501535057.44,18758,22.0,75032.8,7.03,-15.53,-15.95,0,*70
1501535058.69,18759,21.94,75034.3,7.05,-15.43,-15.85,0,*77
1501535059.92,18760,22.0,75034.3,7.03,-15.29,-15.71,0,*7C
1501535061.17,18761,21.94,75032.8,7.05,-15.43,-15.81,0,*78
1501535062.43,18762,22.0,75032.8,7.05,-15.43,-15.81,0,*7B
1501535063.65,18763,22.0,75036.0,7.05,-15.39,-15.71,0,*78
1501535064.87,18764,21.94,75032.0,7.03,-15.25,-15.67,0,*73
1501535066.13,18765,22.0,75032.8,7.05,-15.39,-15.81,0,*71
1501535067.32,18766,21.94,75034.5,7.05,-15.29,-15.67,0,*7B
1501535068.55,18767,22.0,75036.0,7.05,-15.25,-15.57,0,*75
1501535069.78,18768,21.94,75034.3,7.07,-15.25,-15.75,0,*78
1501535070.99,18769,21.94,75034.3,7.09,-15.21,-15.67,0,*70
1501535072.25,18770,21.94,75034.5,7.07,-15.35,-15.75,0,*70
1501535073.44,18771,21.94,75034.3,7.09,-15.25,-15.67,0,*7D
1501535074.66,18772,22.0,75034.3,7.09,-15.21,-15.63,0,*7E
1501535075.86,18773,22.0,75036.8,7.09,-15.25,-15.75,0,*7C
1501535077.08,18774,22.0,75036.5,7.09,-15.35,-15.67,0,*79
1501535078.28,18775,21.94,75032.0,7.09,-15.25,-15.67,0,*79
1501535079.5,18776,22.0,75036.0,7.09,-15.39,-15.75,0,*74
1501535080.72,18777,21.94,75034.3,7.09,-15.21,-15.75,0,*7C
1501535081.97,18778,22.0,75036.3,7.09,-15.39,-15.89,0,*79
1501535083.2,18779,21.94,75032.3,7.11,-15.29,-15.71,0,*77
1501535084.44,18780,22.0,75036.3,7.11,-15.21,-15.63,0,*7A
1501535085.68,18781,21.94,75032.5,7.11,-15.21,-15.63,0,*7B
1501535086.91,18782,22.0,75036.8,7.11,-15.21,-15.63,0,*78
1501535088.14,18783,21.94,75032.0,7.11,-15.15,-15.63,0,*7E
1501535089.36,18784,21.94,75034.0,7.11,-15.29,-15.63,0,*76
1501535090.6,18785,21.94,75032.8,7.13,-15.21,-15.57,0,*7A
1501535091.83,18786,21.94,75032.8,7.11,-15.29,-15.71,0,*77
1501535093.05,18787,22.0,75034.5,7.11,-15.29,-15.63,0,*75
1501535094.28,18788,21.94,75034.5,7.13,-15.25,-15.57,0,*73
1501535095.53,18789,21.94,75036.0,7.11,-15.15,-15.57,0,*73
1501535096.78,18790,22.0,75036.8,7.11,-15.35,-15.71,0,*7D
1501535098.0,18791,21.94,75032.3,7.11,-15.15,-15.63,0,*7D
1501535099.2,18792,21.94,75030.5,7.13,-15.15,-15.67,0,*78
1501535100.42,18793,21.94,75032.0,7.13,-15.01,-15.53,0,*7B
1501535101.64,18794,21.94,75034.5,7.13,-15.11,-15.43,0,*7C
1501535102.89,18795,21.94,75034.3,7.15,-15.01,-15.53,0,*7B
1501535104.12,18796,21.94,75032.8,7.13,-14.93,-15.29,0,*79
1501535105.34,18797,21.94,75032.3,7.17,-15.11,-15.43,0,*7B
1501535106.6,18798,21.94,75032.8,7.15,-14.97,-15.29,0,*75
1501535107.85,18799,22.0,75036.8,7.15,-15.11,-15.43,0,*77
1501535109.05,18800,21.94,75030.5,7.17,-15.07,-15.49,0,*77
1501535110.3,18801,21.94,75034.8,7.17,-14.93,-15.39,0,*7D
1501535111.58,18802,21.94,75034.5,7.15,-14.93,-15.35,0,*70
1501535112.84,18803,21.94,75032.8,7.19,-14.97,-15.35,0,*79
1501535114.11,18804,21.94,75032.8,7.19,-14.93,-15.35,0,*7A
1501535115.38,18805,22.0,75036.0,7.19,-14.97,-15.39,0,*73
1501535116.63,18806,21.94,75036.0,7.19,-15.07,-15.39,0,*78
1501535117.91,18807,21.94,75034.3,7.19,-14.93,-15.39,0,*75
1501535119.16,18808,22.0,75036.8,7.19,-15.07,-15.39,0,*76
1501535120.41,18809,21.94,75036.0,7.19,-15.07,-15.39,0,*77
1501535121.66,18810,22.0,75034.5,7.21,-14.93,-15.43,0,*75
1501535122.91,18811,22.0,75036.3,7.21,-15.01,-15.43,0,*7E
1501535124.18,18812,21.94,75032.8,7.19,-14.93,-15.35,0,*7D
1501535125.39,18813,21.94,75034.3,7.21,-14.89,-15.29,0,*71
1501535126.64,18814,21.94,75036.0,7.19,-14.89,-15.35,0,*70
1501535127.85,18815,21.94,75034.8,7.21,-14.89,-15.29,0,*77
1501535129.06,18816,21.94,75032.5,7.21,-14.89,-15.29,0,*74
1501535130.3,18817,21.94,75032.3,7.21,-14.83,-15.29,0,*7F
1501535131.54,18818,22.0,75038.3,7.21,-14.83,-15.29,0,*70
1501535132.79,18819,22.0,75036.0,7.21,-14.93,-15.35,0,*7D
1501535134.01,18820,21.94,75034.5,7.25,-14.79,-15.15,0,*75
1501535135.25,18821,21.94,75030.8,7.25,-14.83,-15.29,0,*7E
1501535136.47,18822,21.94,75034.0,7.25,-14.79,-15.15,0,*77
1501535137.73,18823,21.94,75034.5,7.27,-14.79,-15.15,0,*74
1501535138.95,18824,21.94,75034.8,7.27,-14.65,-15.11,0,*7A
1501535140.21,18825,21.94,75034.3,7.27,-14.83,-15.29,0,*78
1501535141.47,18826,21.94,75034.0,7.27,-14.83,-15.25,0,*77
1501535142.69,18827,22.0,75038.5,7.27,-14.69,-15.15,0,*71
1501535143.96,18828,21.94,75036.3,7.27,-14.83,-15.29,0,*75
1501535145.19,18829,21.94,75032.3,7.27,-14.89,-15.29,0,*7E
1501535146.43,18830,21.94,75036.0,7.29,-14.83,-15.25,0,*7E
1501535147.68,18831,21.94,75034.5,7.29,-14.75,-15.21,0,*72
1501535148.93,18832,21.94,75034.5,7.29,-14.79,-15.21,0,*7D
1501535150.18,18833,21.94,75036.3,7.29,-14.83,-15.21,0,*79
1501535151.44,18834,22.0,75034.5,7.29,-14.83,-15.35,0,*7B
1501535152.69,18835,22.0,75038.8,7.31,-14.93,-15.25,0,*73
1501535153.93,18836,21.94,75034.5,7.29,-14.83,-15.25,0,*78
1501535155.16,18837,21.94,75034.8,7.29,-14.65,-15.21,0,*75
1501535156.43,18838,22.0,75036.8,7.31,-14.75,-15.21,0,*72
1501535157.7,18839,21.94,75036.8,7.31,-14.83,-15.21,0,*7A
1501535158.95,18840,21.94,75036.3,7.31,-14.79,-15.11,0,*72
1501535160.21,18841,21.94,75036.0,7.31,-14.79,-15.25,0,*74
1501535161.45,18842,22.0,75038.5,7.31,-14.79,-15.11,0,*70
1501535162.72,18843,21.94,75036.3,7.31,-14.93,-15.35,0,*73
1501535163.95,18844,22.0,75034.5,7.33,-14.75,-15.15,0,*7C
1501535165.17,18845,22.0,75038.3,7.33,-14.75,-15.15,0,*7D
1501535166.4,18846,22.0,75038.0,7.33,-14.75,-15.15,0,*7E
1501535167.65,18847,22.0,75038.8,7.33,-14.75,-15.21,0,*78
1501535168.91,18848,22.0,75036.5,7.35,-14.83,-15.25,0,*7C
1501535170.12,18849,21.94,75036.3,7.33,-14.89,-15.29,0,*7D
1501535171.36,18850,21.94,75034.8,7.33,-14.79,-15.29,0,*7A
1501535172.58,18851,21.94,75034.8,7.33,-14.89,-15.35,0,*79
1501535173.84,18852,21.94,75036.5,7.35,-14.83,-15.15,0,*74
1501535175.06,18853,21.94,75032.8,7.35,-14.69,-15.15,0,*71
1501535176.28,18854,21.94,75032.0,7.35,-14.69,-15.15,0,*76
1501535177.54,18855,21.94,75034.5,7.35,-14.83,-15.25,0,*70
1501535178.8,18856,21.94,75036.3,7.35,-14.75,-15.25,0,*7A
1501535180.05,18857,21.94,75034.0,7.35,-14.75,-15.25,0,*7B
1501535181.32,18858,21.94,75036.0,7.35,-14.83,-15.29,0,*71
1501535182.59,18859,21.94,75036.3,7.35,-14.97,-15.43,0,*79
1501535183.82,18860,21.94,75036.3,7.37,-14.75,-15.29,0,*71
1501535185.09,18861,21.94,75034.5,7.35,-14.83,-15.29,0,*7B
1501535186.35,18862,21.94,75034.5,7.35,-14.83,-15.25,0,*74
1501535187.57,18863,21.94,75032.0,7.35,-14.69,-15.25,0,*71
1501535188.79,18864,21.94,75032.3,7.35,-14.69,-15.15,0,*75
1501535190.03,18865,21.94,75038.0,7.37,-14.75,-15.25,0,*78
1501535191.22,18866,21.94,75036.0,7.37,-14.69,-15.15,0,*75
1501535192.46,18867,21.94,75036.0,7.37,-14.75,-15.29,0,*76
1501535193.69,18868,21.94,75032.8,7.37,-14.75,-15.29,0,*79
1501535194.93,18869,21.94,75038.0,7.37,-14.83,-15.29,0,*71
1501535196.18,18870,21.94,75036.5,7.39,-14.69,-15.21,0,*7B
1501535197.37,18871,21.94,75036.0,7.37,-14.69,-15.15,0,*73
1501535198.6,18872,22.0,75036.8,7.37,-14.75,-15.29,0,*72
1501535199.82,18873,21.94,75036.0,7.39,-14.69,-15.11,0,*7B
1501535201.07,18874,21.94,75038.5,7.39,-14.69,-15.21,0,*7F
1501535202.29,18875,21.94,75036.0,7.39,-14.69,-15.25,0,*7A
1501535203.57,18876,21.94,75034.8,7.39,-14.79,-15.21,0,*7C
1501535204.79,18877,22.0,75038.5,7.39,-14.65,-15.11,0,*73
1501535205.99,18878,21.94,75038.0,7.37,-14.69,-15.15,0,*7A
1501535207.21,18879,21.94,75034.3,7.39,-14.69,-15.25,0,*76
1501535208.46,18880,22.0,75038.8,7.39,-14.69,-15.21,0,*74
1501535209.73,18881,21.94,75034.0,7.39,-14.79,-15.35,0,*71
1501535210.92,18882,21.94,75032.8,7.41,-14.65,-15.15,0,*72
1501535212.2,18883,21.94,75038.3,7.39,-14.79,-15.21,0,*76
1501535213.46,18884,22.0,75036.5,7.39,-14.79,-15.25,0,*75
1501535214.7,18885,21.94,75038.0,7.43,-14.65,-15.21,0,*70
1501535215.92,18886,21.94,75034.5,7.41,-14.65,-15.21,0,*71
1501535217.14,18887,21.94,75034.8,7.41,-14.75,-15.29,0,*79
1501535218.37,18888,21.94,75036.8,7.41,-14.79,-15.29,0,*7A
1501535219.64,18889,21.94,75034.3,7.43,-14.79,-15.21,0,*71
1501535220.87,18890,21.94,75034.8,7.41,-14.79,-15.29,0,*73
1501535222.14,18891,21.94,75038.0,7.43,-14.75,-15.21,0,*74
1501535223.38,18892,21.94,75034.8,7.43,-14.75,-15.15,0,*70
1501535224.63,18893,21.94,75038.5,7.43,-14.55,-15.07,0,*70
1501535225.89,18894,22.0,75040.0,7.43,-14.75,-15.29,0,*79
1501535227.14,18895,21.94,75032.8,7.43,-14.55,-15.07,0,*76
1501535228.36,18896,22.0,75036.8,7.43,-14.61,-15.07,0,*72
1501535229.58,18897,21.94,75036.8,7.41,-14.55,-15.07,0,*76
1501535230.8,18898,21.94,75036.3,7.43,-14.61,-15.07,0,*7C
1501535232.02,18899,21.94,75036.3,7.43,-14.61,-15.15,0,*7E
1501535233.27,18900,21.94,75036.5,7.43,-14.75,-15.15,0,*7A
1501535234.51,18901,22.0,75036.0,7.43,-14.65,-15.21,0,*7D
1501535235.74,18902,21.94,75038.5,7.47,-14.61,-15.11,0,*7D
1501535236.99,18903,21.94,75036.8,7.47,-14.55,-15.11,0,*7B
1501535238.21,18904,21.94,75038.8,7.47,-14.69,-15.25,0,*74
1501535239.43,18905,22.0,75036.5,7.47,-14.69,-15.25,0,*75
1501535240.66,18906,21.94,75034.5,7.47,-14.69,-15.29,0,*7A
1501535241.89,18907,21.94,75038.3,7.47,-14.61,-15.25,0,*7F
1501535243.11,18908,22.0,75038.5,7.47,-14.61,-15.11,0,*77
1501535244.33,18909,21.94,75034.8,7.47,-14.61,-15.15,0,*72
1501535245.55,18910,21.94,75036.3,7.47,-14.69,-15.25,0,*71
1501535246.8,18911,21.94,75038.3,7.47,-14.75,-15.15,0,*7E
1501535248.03,18912,21.94,75034.8,7.47,-14.61,-15.25,0,*7B
1501535249.28,18913,22.0,75036.3,7.47,-14.51,-15.11,0,*7E
1501535250.56,18914,21.94,75036.5,7.47,-14.75,-15.39,0,*75
1501535251.81,18915,21.94,75038.8,7.47,-14.89,-15.39,0,*77
1501535253.07,18916,21.94,75038.5,7.49,-14.89,-15.39,0,*7A
1501535254.33,18917,21.94,75038.0,7.47,-14.83,-15.29,0,*7E
1501535255.6,18918,21.94,75036.5,7.49,-14.83,-15.29,0,*7F
1501535256.85,18919,21.94,75036.0,7.49,-14.89,-15.39,0,*75
1501535258.11,18920,21.94,75036.3,7.49,-14.89,-15.39,0,*7F
1501535259.37,18921,21.94,75036.3,7.47,-14.83,-15.29,0,*7B
1501535260.66,18922,21.94,75034.8,7.49,-14.83,-15.39,0,*77
1501535261.92,18923,21.94,75036.5,7.49,-14.75,-15.25,0,*72
1501535263.2,18924,21.94,75034.8,7.47,-14.83,-15.39,0,*7F
1501535264.46,18925,21.94,75034.5,7.47,-14.75,-15.29,0,*76
1501535265.74,18926,21.94,75034.0,7.49,-14.83,-15.39,0,*73
1501535266.97,18927,22.0,75038.0,7.49,-14.69,-15.29,0,*77
1501535268.24,18928,21.94,75038.0,7.49,-14.83,-15.29,0,*7C
1501535269.49,18929,21.94,75034.0,7.47,-14.75,-15.29,0,*7A
1501535270.76,18930,21.94,75038.0,7.49,-14.83,-15.29,0,*75
1501535272.04,18931,21.94,75038.8,7.49,-14.83,-15.39,0,*75
1501535273.33,18932,21.94,75038.8,7.49,-14.83,-15.39,0,*76
1501535274.62,18933,21.94,75036.8,7.49,-14.83,-15.39,0,*77
1501535275.9,18934,21.94,75034.5,7.49,-14.97,-15.39,0,*75
1501535277.18,18935,22.0,75038.5,7.49,-14.83,-15.39,0,*71
1501535278.47,18936,21.94,75038.8,7.49,-14.83,-15.39,0,*72
1501535279.75,18937,21.94,75034.8,7.49,-14.97,-15.39,0,*76
1501535281.02,18938,22.0,75040.8,7.49,-14.97,-15.43,0,*74
1501535282.31,18939,22.0,75036.5,7.49,-14.83,-15.43,0,*70
1501535283.59,18940,21.94,75038.5,7.49,-14.83,-15.43,0,*7E
1501535284.88,18941,21.94,75036.8,7.49,-14.83,-15.43,0,*7F
1501535286.13,18942,21.94,75034.5,7.49,-14.89,-15.43,0,*76
1501535287.39,18943,21.94,75038.8,7.49,-14.89,-15.39,0,*7A
1501535288.68,18944,21.94,75034.8,7.49,-14.83,-15.39,0,*77
1501535289.97,18945,21.94,75038.5,7.49,-14.83,-15.39,0,*76
1501535291.22,18946,21.94,75038.3,7.49,-14.89,-15.39,0,*7F
1501535292.48,18947,21.94,75038.8,7.51,-14.83,-15.35,0,*71
1501535293.74,18948,21.94,75034.8,7.51,-14.83,-15.35,0,*7E
1501535295.0,18949,21.94,75036.0,7.51,-14.83,-15.39,0,*73
1501535296.26,18950,21.94,75036.0,7.53,-14.79,-15.49,0,*7B
1501535297.52,18951,21.94,75036.3,7.51,-14.83,-15.39,0,*7A
1501535298.8,18952,21.94,75036.8,7.53,-14.79,-15.35,0,*72
1501535300.0,18953,21.94,75034.5,7.51,-14.69,-15.25,0,*71
1501535301.22,18954,21.94,75036.3,7.51,-14.65,-15.21,0,*7E
1501535302.44,18955,22.0,75036.8,7.51,-14.69,-15.21,0,*73
1501535303.7,18956,21.94,75038.8,7.53,-14.75,-15.29,0,*77
1501535304.95,18957,21.94,75036.3,7.53,-14.65,-15.21,0,*7F
1501535306.21,18958,21.94,75036.3,7.53,-14.61,-15.21,0,*74
1501535307.45,18959,21.94,75038.5,7.51,-14.79,-15.35,0,*7B
1501535308.72,18960,22.0,75038.5,7.53,-14.75,-15.29,0,*72
1501535309.98,18961,21.94,75038.8,7.53,-14.79,-15.29,0,*7F